Weather in Zamartynye

Russia / Lipetsk Oblast     52°51′38″N   39°41′00″E
temp.,
°C
wind,
m/s
gust,
m/s
humid.,
%
clouds,
%
prec.,
mm/h
press.,
hPa
HPBL,
m
14 april, wed
wed1400:00+13se410537 0.0 1023241
03:00+11se3563100 0.0 102396
06:00+9se3565100 0.0 1022102
09:00+14se4748100 0.0 1021347
12:00+18se5732100 0.0 1020994
15:00+20se68245 0.0 10182166
18:00+19se473191 0.0 1017523
21:00+15ese41046100 0.0 1017237
15 april, thu
thu1500:00+12se355399 0.0 1017104
03:00+11e3458100 0.0 101660
06:00+10ese2265100 0.0 101649
09:00+13ssw1254100 0.0 1016232
12:00+17n334381 0.0 1014742
15:00+19e343544 0.0 10142104
18:00+15w576122 0.0 1014196
21:00+13ne116711 0.1 101414
16 april, fri
fri1600:00+13ne236788 0.0 101459
03:00+12e1167100 0.0 101410
06:00+11s227173 0.0 101526
09:00+13wnw116667 0.0 1015178
12:00+18sse3444100 0.0 10161407
15:00+19s4640100 0.0 10162000
18:00+16sse4556100 0.6 1015828
21:00+12e358298 7.5 1018182
17 april, sat
sat1700:00+11e228640 0.0 101832
03:00+10ene338896 0.0 101948
06:00+10ese129089 0.0 101925
09:00+14e61058100 0.1 1017540
12:00+18e694859 0.1 10191562
15:00+17se4851100 0.3 1019699
18:00+14se587295 5.1 1021372
21:00+12wnw2391100 8.6 1022133
18 april, sun
sun1800:00+10ene5107658 0.6 1023377
03:00+8ene487816 0.6 1025242
06:00+8ene488078 0.0 1026236
09:00+11e68569 0.0 1027630
12:00+13e674782 0.0 10271199
15:00+15ene67335 0.0 10271907
18:00+14ene474316 0.0 1027634
21:00+10e38575 0.0 1028187